Regional Weather Roundup
Issued by NWS

Home | Current Version | Previous Version | Graphics & Text | Print | Product List | Glossary On
Versions: 1 2 3 4 5 6 7 8 9 10 11 12 13 14 15 16 17 18 19 20 21 22 23 24 25 26 27 28 29 30 31 32 33 34 35 36 37 38 39 40 41 42 43 44 45 46 47 48 49 50
000
ASUS45 KSLC 310710
RWRUT

UTAH REGIONAL WEATHER ROUNDUP
NATIONAL WEATHER SERVICE SALT LAKE CITY UT
1200 AM MST SAT JAN 31 2015

UTZ001>011-023>025-310800-

NORTHERN UTAH

CITY           SKY/WX    TMP DP  RH WIND       PRES   REMARKS
BRIGHAM CITY   CLOUDY    41  32  69 NW5       29.99S
HILL AFB       CLOUDY    40  30  66 E20       29.95F WCI  31
LOGAN          CLOUDY    35  32  88 W5        30.02S WCI  31
OGDEN          CLOUDY    41  34  76 W6        29.96S
PROVO AIRPORT  CLOUDY    43  34  70 NW7       29.96S
SALT LAKE CITY CLOUDY    41  36  82 W8        29.97S
VERNAL         FOG       36  35  96 CALM      29.95F VSB 1/4
WENDOVER       CLOUDY    39  30  70 NW10      30.03S WCI  32
HEBER CITY     CLOUDY    34  32  93 CALM      29.99S
WEST JORDAN    CLOUDY    41  36  81 NW5       29.97S

$$

UTZ012>022-026-027-310800-

SOUTHERN/CENTRAL UTAH

CITY           SKY/WX    TMP DP  RH WIND       PRES   REMARKS
BLANDING       CLOUDY    32  32 100 NW3       30.03F
BRYCE CANYON   LGT SNOW  31  29  92 CALM      29.93S
CEDAR CITY     CLOUDY    37  36  96 CALM      29.90R
DELTA          CLOUDY    38  37  99 N9        29.94F WCI  31
HANKSVILLE     CLOUDY    39  37  93 CALM      29.97F
MILFORD        LGT RAIN  38  36  92 N12       29.93R WCI  30
MOAB/CYNLANDS  LGT RAIN  40  38  93 CALM      29.94F
PRICE          CLOUDY    37  35  92 W3        29.95S
ST GEORGE      CLOUDY    46  43  87 N5        29.91F
KANAB          CLOUDY    36  36 100 N3        29.95F

$$

REGIONAL REPORTS     COLORADO/ARIZONA

CITY           SKY/WX    TMP DP  RH WIND       PRES   REMARKS
CRAIG, CO      LGT RAIN  34  32  92 CALM      29.95F
GRAND JUNCTION LGT RAIN  38  38 100 CALM      29.94S FOG
RIFLE          LGT RAIN  36  35  96 CALM      29.95F
MONTROSE       CLOUDY    38  37  97 CALM      29.95F
CORTEZ         LGT RAIN  36  34  92 W5        29.95F WCI  32
PAGE, AZ       NOT AVBL
GRAND CANYON   CLOUDY    38  37  97 VRB3      29.90F FOG
KINGMAN        CLOUDY    46  44  93 N5        29.87S
FLAGSTAFF      CLOUDY    37  35  92 SW6       29.90F WCI  32

$$

REGIONAL REPORTS    NEVADA/IDAHO/WYOMING

CITY           SKY/WX    TMP DP  RH WIND       PRES   REMARKS
LAS VEGAS, NV  CLOUDY    50  44  80 NE5       29.84S
ELY            CLOUDY    33  32  96 N17       29.96F WCI  22
ELKO           MOCLDY    30  27  88 CALM      30.05R
POCATELLO, ID  CLOUDY    32  31  96 SW10      30.10F WCI  24
BURLEY         CLOUDY    35  31  85 W7        30.12S WCI  29
EVANSTON, WY   CLOUDY    31  27  85 NE10      30.01F WCI  22
ROCK SPRINGS   LGT SNOW  28  25  88 NE12      30.02F FOG     WCI  18
KEMMERER       FLURRIES  30  28  93 N7        30.03F WCI  23

$$


USA.gov is the U.S. government's official web portal to all federal, state and local government web resources and services.